Location: ??????????
(54.5844°N, 39.1121°E)
Time: 05:50:31
(UTC+00:00)

Daily predictions for brighter satellites

Satellite Brightness Start Highest point End
(mag) Time Altitude Azimuth Time Altitude Azimuth Time Altitude Azimuth
Cosmos 1943 Rocket 4.5 00:13:00 17° N 00:13:00 17° N 00:14:37 10° NNE
Cosmos 2278 Rocket 4.4 00:13:18 18° N 00:13:18 18° N 00:15:09 10° NNE
ACS3 Solar Sail 3.6 00:13:59 10° N 00:15:50 21° N 00:15:50 21° N
ADEOS II 4.2 00:17:56 10° NNE 00:19:45 22° NNE 00:19:45 22° NNE
CENTAUR R/B 3.5 00:32:22 48° NNE 00:32:22 48° NNE 00:38:48 10° NE
Resurs 1-4 Rocket 4.2 00:28:31 10° NNE 00:30:07 20° NNE 00:30:07 20° NNE
Cosmos 2263 Rocket 4.0 00:42:22 25° N 00:43:47 28° NNE 00:48:36 10° E
Cosmos 2369 Rocket 3.6 00:54:17 32° NNE 00:54:17 32° NNE 00:57:25 10° NNE
SL-8 Rocket 4.5 00:55:48 56° NE 00:55:48 56° NE 01:00:54 10° NNE
USA 215 3.4 00:49:43 10° ESE 00:55:28 70° E 00:55:28 70° E
Cosmos 2218 Rocket 4.2 01:05:43 67° E 01:05:43 67° E 01:12:04 10° NNE
Cosmos 1727 Rocket 4.5 01:00:59 10° N 01:07:05 57° ENE 01:13:09 10° SSE
Cosmos 2227 Rocket 3.1 01:09:24 43° NNE 01:10:21 47° NE 01:15:49 10° ESE
CZ-2C R/B 3.4 01:15:00 10° NNE 01:19:09 40° E 01:19:09 40° E
Cosmos 1821 Rocket 4.2 01:25:34 50° SSE 01:27:07 68° E 01:33:12 10° NNE
H-2A R/B 3.3 01:22:11 10° N 01:25:07 32° N 01:25:07 32° N
NOSS 3-2 (A) 3.9 01:28:48 48° NNW 01:28:48 48° NNW 01:35:12 10° NE
CZ-2D R/B 3.7 01:26:11 10° N 01:28:46 26° NNW 01:28:46 26° NNW
Cosmos 1850 Rocket 4.5 01:36:52 53° N 01:36:52 53° N 01:41:01 10° NNE
Cosmos 2344 3.8 01:39:39 54° W 01:41:20 64° SW 01:51:29 10° SSE
Meteor 2-21 4.2 01:39:06 10° NNW 01:45:16 80° W 01:51:20 10° S
Cosmos 1741 Rocket 4.3 01:46:53 54° N 01:46:53 54° N 01:51:07 10° NNE
SJ 16-02 3.9 01:49:46 11° N 01:49:46 11° N 01:50:01 10° N
Meteor 1-21 Rocket 4.3 01:42:23 10° NNW 01:48:17 82° ENE 01:54:03 10° SSE
Lacrosse 4 Rocket 3.9 01:48:31 12° N 01:48:31 12° N 01:49:51 10° NNE
Meteor 2-21 Rocket 4.4 01:42:21 10° N 01:48:35 82° ENE 01:54:42 10° SSE
Molniya-1 4.2 01:49:13 54° SE 01:49:29 55° SE 01:57:14 10° NE
USA 238 DEB 3.7 01:48:26 51° SSW 01:50:01 70° SE 01:56:53 10° NE
USA 238 3.7 01:48:32 51° SSW 01:50:09 70° SE 01:57:01 10° NE
Cosmos 1570 Rocket 4.0 01:49:07 53° N 01:50:20 76° ENE 01:55:32 10° SSE
ADEOS Rocket 4.2 01:48:25 10° N 01:51:34 25° NNW 01:51:34 25° NNW
Exosat Rocket 3.9 01:48:21 10° NNW 01:54:51 74° NE 01:59:59 10° SE
Cosmos 1733 Rocket 4.2 01:52:12 15° SSE 01:55:25 42° E 01:59:32 10° NNE
Cosmos 2297 Rocket 3.4 01:58:25 27° S 01:58:25 27° S 02:01:00 10° S
Cosmos 1943 Rocket 4.2 01:54:28 14° NNW 01:55:47 15° N 01:58:55 10° NNE
Cosmos 2278 Rocket 4.2 01:55:06 15° NNW 01:56:21 16° N 01:59:43 10° NNE
Meteor 1-12 Rocket 4.0 01:56:09 74° WSW 01:56:27 76° WNW 02:02:08 10° NNE
In-Cosmos 22 Rocket 4.1 01:50:49 10° NNW 01:56:37 73° W 02:02:25 10° S
Cosmos 1697 Rocket 4.0 01:52:57 10° S 01:58:05 38° ESE 02:03:17 10° NE
SL-4 R/B 3.5 02:00:50 26° SE 02:00:50 26° SE 02:02:43 10° ESE
ACS3 Solar Sail 3.6 01:57:46 10° N 01:59:36 15° NNW 01:59:36 15° NNW
Cosmos 2341 Rocket 4.1 02:02:12 51° WNW 02:02:12 51° WNW 02:08:08 10° N
ADEOS II 3.5 01:57:54 10° N 02:00:34 24° NNW 02:00:34 24° NNW
Cosmos 1378 Rocket 3.8 02:00:23 10° N 02:04:40 65° ENE 02:08:54 10° SSE
Cosmos 1959 Rocket 4.4 02:05:36 56° W 02:05:54 57° WNW 02:11:59 10° N
Cosmos 2219 4.1 02:01:28 14° NNW 02:06:13 48° NE 02:11:44 10° ESE
Meteor 2-15 Rocket 4.4 02:01:41 18° S 02:06:21 87° E 02:12:31 10° NNE
Cosmos 2208 Rocket 4.1 02:04:10 20° NNW 02:07:59 78° ENE 02:13:25 10° SSE
Cosmos 2366 rocket 4.1 02:07:57 50° WNW 02:08:07 51° WNW 02:14:20 10° N
Cosmos 1939 Rocket 3.0 02:04:24 10° NNE 02:08:10 64° E 02:08:10 64° E
NOSS 2-3 (E) 4.0 02:09:42 44° N 02:09:42 44° N 02:13:02 10° NE
Resurs 1-4 Rocket 3.9 02:09:09 10° N 02:11:09 17° NNW 02:11:09 17° NNW
ARGOS 3.2 02:07:46 10° N 02:13:01 54° WNW 02:13:01 54° WNW
Cosmos 292 Rocket 4.3 02:14:36 41° NNW 02:14:36 41° NNW 02:18:19 10° NNE
Cosmos 1000 Rocket 4.4 02:12:08 10° NNW 02:18:23 67° W 02:24:38 10° S
BREEZE-M R/B 4.3 02:21:28 18° SE 02:21:28 18° SE 02:22:39 10° ESE
NOSS 3-2 (C) 3.7 02:20:02 41° WNW 02:21:26 49° NNW 02:28:05 10° NE
Cosmos 1025 Rocket 3.7 02:17:46 10° N 02:22:05 56° ENE 02:26:22 10° SSE
CENTAUR R/B 3.7 02:19:27 26° NW 02:23:07 44° N 02:31:15 10° ENE
Cosmos 773 Rocket 3.8 02:20:22 24° NNW 02:23:40 80° WSW 02:28:53 10° SSE
Cosmos 2242 Rocket 4.1 02:26:55 41° SSW 02:26:55 41° SSW 02:29:58 10° S
Cosmos 2123 Rocket 3.9 02:20:44 10° NNW 02:27:00 78° W 02:33:12 10° S
Cosmos 2263 Rocket 2.2 02:24:02 17° NNW 02:28:29 86° NE 02:34:10 10° SSE
SL-24 R/B 4.4 02:26:31 10° NNE 02:31:15 89° W 02:36:38 10° SSW
Cosmos 2292 Rocket 3.8 02:29:29 10° NNW 02:33:52 62° W 02:39:29 10° S
PAYLOAD A 4.0 02:29:16 10° NNE 02:34:24 64° WNW 02:37:22 26° SW
Cosmos 2369 Rocket 3.7 02:36:03 20° NW 02:37:06 21° NNW 02:41:22 10° NNE
Cosmos 2082 4.2 02:31:40 10° NNW 02:37:22 61° NE 02:43:00 10° SE
USA 59 Rocket 0.9 02:37:39 19° S 02:39:22 30° SE 02:42:03 10° ENE
Cosmos 1674 Rocket 3.4 02:35:08 10° NNW 02:39:35 85° W 02:44:01 10° S
USA 215 3.4 02:33:11 10° SE 02:39:38 56° SW 02:42:49 30° W
H-2A R/B 4.2 02:40:15 10° NNW 02:40:52 12° NNW 02:40:52 12° NNW
Cosmos 2360 4.2 02:41:28 31° WSW 02:44:12 64° NW 02:49:55 10° NNE
Cosmos 1869 Rocket 4.5 02:49:29 29° NW 02:49:29 29° NW 02:52:37 10° N
Cosmos 1656 3.9 02:47:17 33° WSW 02:49:27 50° NW 02:54:55 10° NNE
H-2A R/B 3.1 02:49:05 10° NNE 02:52:55 68° WNW 02:55:42 18° SSW
Cosmos 2227 Rocket 2.5 02:51:14 23° NW 02:54:27 45° WSW 02:59:47 10° S
CZ-2C R/B 2.9 02:53:12 10° N 02:57:24 35° WNW 02:58:23 31° W
NOAA 12 4.0 02:58:46 10° NNE 03:04:04 82° WNW 03:09:20 10° SSW
DMSP B5D1-3 4.5 02:59:37 10° SSE 03:04:41 87° ENE 03:09:48 10° NNW
COSMO-SKYMED 1 2.4 03:00:38 10° S 03:04:42 61° WSW 03:08:48 10° NNW
SKYMED 2 4.0 03:01:39 10° SSW 03:05:43 39° W 03:09:51 10° NNW
H-2A R/B 3.8 03:02:47 10° NNW 03:05:38 15° NW 03:05:38 15° NW
Cosmos 1934 Rocket 3.9 03:01:58 10° SSW 03:08:02 66° WNW 03:14:16 10° N
SL-24 R/B - RUBIN 2 4.2 03:07:19 27° W 03:09:14 41° NNW 03:13:28 10° NE
CZ-2D R/B 4.1 03:08:15 10° NNW 03:09:51 11° NW 03:10:01 11° NW
Cosmos 1812 4.1 03:08:06 10° SSE 03:10:12 25° E 03:12:18 10° NE
IRS-1D 3.5 03:05:44 10° NNE 03:11:01 80° WNW 03:16:11 10° SSW
NOSS 2-3 (D) 4.5 03:15:36 22° WNW 03:17:14 30° NNW 03:21:14 10° NE
Cosmos 1975 Rocket 3.9 03:13:04 10° N 03:17:17 52° ENE 03:21:28 10° SSE
CZ-4 R/B 3.9 03:13:25 10° NNE 03:18:26 82° WNW 03:23:25 10° SSW
FengYun 1-2 T 4.5 03:13:25 10° N 03:18:38 46° WNW 03:23:50 10° SW
NOSS 3-2 (A) 4.5 03:16:08 16° WNW 03:20:40 40° N 03:27:42 10° ENE
Cosmos 1605 Rocket 4.0 03:17:13 10° SSW 03:23:39 81° WNW 03:30:04 10° N
Cosmos 2221 Rocket 3.7 03:19:47 10° NNW 03:24:13 52° W 03:28:36 10° S
Cosmos 1461 3.8 03:22:57 12° NW 03:26:11 36° NNE 03:29:39 10° E
Helios 1A Rocket 2.2 03:23:14 10° SSE 03:26:32 80° WSW 03:29:51 10° NNW
Cosmos 1782 Rocket 4.3 03:22:38 10° S 03:26:57 56° E 03:31:19 10° NNE
Lacrosse 4 Rocket 3.4 03:24:44 10° NNW 03:27:38 19° NNE 03:30:31 10° ENE
Cosmos 1908 Rocket 3.5 03:23:23 10° SSW 03:27:44 81° W 03:32:10 10° N
Cosmos 1538 Rocket 4.3 03:23:47 10° NNW 03:29:09 73° ENE 03:34:26 10° SE
Cosmos 1503 Rocket 4.1 03:24:24 10° SSW 03:29:35 79° ESE 03:34:51 10° NNE
Cosmos 1980 Rocket 2.4 03:24:12 10° SSW 03:29:46 76° ESE 03:35:23 10° NE
Cosmos 1733 Rocket 3.9 03:29:25 10° SW 03:33:13 28° WNW 03:37:01 10° N
SL-4 R/B 3.3 03:34:27 16° WSW 03:36:15 22° SSW 03:39:11 10° SSE
Cosmos 1844 Rocket 3.0 03:33:15 10° NNW 03:38:56 71° NE 03:44:34 10° SE
USA 238 DEB 4.0 03:35:53 14° W 03:41:19 52° NNW 03:48:19 10° NE
USA 238 4.0 03:35:59 14° W 03:41:26 52° NNW 03:48:27 10° NE
Cosmos 1939 Rocket 4.2 03:39:04 10° NNW 03:41:42 18° WNW 03:43:01 15° W
Cosmos 1943 Rocket 4.2 03:37:54 10° NNW 03:41:48 19° NNE 03:45:43 10° ENE
Cosmos 1697 Rocket 2.9 03:36:23 10° SW 03:41:54 54° NW 03:47:29 10° NNE
Intercosmos 25 Rocket 4.3 03:39:11 10° NNW 03:42:07 21° W 03:44:38 10° SW
SMAP 3.9 03:37:33 10° NNE 03:42:09 55° E 03:46:43 10° S
Cosmos 1862 4.4 03:38:59 10° N 03:42:25 42° ENE 03:45:50 10° SE
Cosmos 2278 Rocket 4.2 03:38:48 10° NNW 03:42:46 19° NNE 03:46:42 10° ENE
NOSS 2-1 (D) 2.6 03:41:25 10° SW 03:44:46 81° NW 03:47:45 10° NE
GP-B 3.1 03:43:18 10° N 03:47:38 61° W 03:51:56 10° SSW
COSMOS 2455 2.9 03:41:49 10° SW 03:47:52 84° NW 03:53:57 10° NE
NOSS 2-1 (C) 2.6 03:46:01 10° SW 03:49:24 81° NW 03:52:22 10° NE
Cosmos 2219 3.6 03:44:57 10° NW 03:50:22 44° WSW 03:55:43 10° S
Cosmos 1400 Rocket 2.6 03:48:51 10° SSW 03:52:39 79° WNW 03:56:30 10° NNE
NOSS 2-1 (E) 2.7 03:50:31 10° SW 03:54:00 85° NNW 03:57:03 10° NE
Cosmos 2227 4.2 03:48:35 10° NNW 03:54:15 89° WSW 03:59:55 10° SSE
ARIANE 5 R/B 3.9 03:50:58 10° NNE 03:55:46 44° E 04:00:30 10° S
Cosmos 1486 Rocket 4.2 03:51:02 10° SW 03:56:14 52° NW 04:01:26 10° NNE
Cosmos 1777 Rocket 4.0 03:51:43 10° SW 03:56:50 60° WNW 04:02:00 10° NNE
Cosmos 1484 Rocket 2.4 03:54:49 10° N 03:58:18 64° WNW 04:01:46 10° SSW
Cosmos 1025 Rocket 4.3 03:55:53 10° NW 03:59:10 21° W 04:02:25 10° SW
SL-08 R/B 4.2 03:55:46 10° SE 04:00:25 52° ENE 04:05:02 10° N
NOSS 7 (E) 4.4 04:01:02 10° NW 04:04:10 56° SW 04:07:20 10° SSE
CBERS-1 4.0 03:59:36 10° NNE 04:04:45 86° WNW 04:09:52 10° SSW
Thor Agena Rocket 4.1 04:02:22 10° NNE 04:07:36 67° ESE 04:12:50 10° S
Cosmos 1680 Rocket 4.3 04:02:22 10° NNW 04:07:37 55° ENE 04:12:49 10° SE
MOS 1 Rocket 3.0 04:03:45 10° NNE 04:08:03 83° WNW 04:12:26 10° SSW
Cosmos 2263 Rocket 3.4 04:07:31 10° NW 04:11:44 22° WSW 04:15:55 10° SSW
CRYOSAT 2 4.5 04:07:12 10° S 04:12:06 87° E 04:17:01 10° N
Cosmos 1602 3.8 04:10:32 10° NNW 04:13:00 28° W 04:15:28 10° SSW
NOSS 2-2 (C) 4.1 04:10:08 10° NW 04:13:20 41° NNE 04:17:21 10° ESE
NOSS 3-2 (C) 4.5 04:07:51 10° WNW 04:13:36 40° N 04:20:37 10° ENE
CENTAUR R/B 3.5 04:07:31 10° NW 04:15:04 65° NNE 04:24:08 10° ESE
NOSS 3-1 (C) 3.2 04:12:33 10° SW 04:17:25 88° SE 04:23:31 10° NE
Cosmos 1300 Rocket 3.9 04:14:46 10° SW 04:19:00 45° WNW 04:23:16 10° N
Cosmos 1725 Rocket 4.4 04:14:58 10° S 04:21:06 70° E 04:27:16 10° NNE
Cosmos 2082 4.5 04:16:09 10° NW 04:21:11 33° WSW 04:26:10 10° SSW
Cosmos 1354 Rocket 4.0 04:16:57 10° SW 04:22:07 63° WNW 04:27:22 10° NNE
